period_start,C,m1,H,J0,J1,J2,J3,J4,J5,JA,JB,JC,JD,JJ,JK,JN,#
2015-05-26 00:02:00,-0.00,0.04,0.00,23.09,27.20,30.06,4.80,26.24,1014.35,2036.02,3447.89,3318.08,3602.99,350.34,346.93,11.90,0000 0000 0000 0000 000000
2015-05-26 00:07:01,0.00,0.04,0.00,23.09,27.20,30.06,4.81,26.24,1014.25,2036.05,3447.96,3318.12,3602.99,350.00,346.80,11.93,0000 0000 0000 0000 000000
2015-05-26 00:12:02,0.00,0.04,0.00,23.09,27.20,30.02,4.74,26.23,1014.27,2036.11,3447.97,3318.24,3603.00,350.08,346.83,11.96,0000 0000 0000 0000 000000
2015-05-26 00:17:03,0.00,0.04,0.00,23.07,27.20,30.03,4.70,26.33,1014.19,2036.07,3447.92,3318.11,3603.00,349.74,346.56,11.99,0000 0000 0000 0000 000000
2015-05-26 00:22:05,0.00,0.04,0.00,23.07,27.20,30.03,4.77,26.29,1014.19,2036.06,3447.94,3318.08,3603.00,349.88,346.58,12.01,0000 0000 0000 0000 000000
2015-05-26 00:27:06,0.01,0.04,0.00,23.07,27.19,30.04,4.71,26.26,1014.18,2036.12,3447.96,3318.12,3603.00,349.60,346.46,12.04,0000 0000 0000 0000 000000
2015-05-26 00:32:07,-0.01,0.04,0.00,23.09,27.19,30.05,4.74,26.38,1014.18,2036.10,3447.95,3318.09,3603.00,349.55,346.38,12.07,0000 0000 0000 0000 000000
2015-05-26 00:37:09,0.00,0.04,0.00,23.10,27.19,30.06,4.72,26.27,1014.18,2036.11,3447.90,3318.08,3602.99,349.60,346.19,12.10,0000 0000 0000 0000 000000
2015-05-26 00:42:10,0.00,0.04,0.00,23.11,27.19,30.04,4.74,26.22,1014.18,2036.10,3447.92,3318.04,3602.99,350.18,347.02,12.13,0000 0000 0000 0000 000000
2015-05-26 00:47:12,0.01,0.04,0.00,23.10,27.19,30.02,4.82,26.24,1014.18,2036.20,3447.88,3318.08,3602.99,349.84,346.47,12.16,0000 0000 0000 0000 000000
2015-05-26 00:52:13,0.00,0.04,0.00,23.12,27.19,30.03,4.79,26.24,1014.18,2036.17,3447.86,3318.06,3602.99,350.00,346.67,12.19,0000 0000 0000 0000 000000
2015-05-26 00:57:15,-0.00,0.04,0.00,23.13,27.18,30.03,4.79,26.46,1014.18,2036.16,3447.37,3318.02,3602.99,350.41,346.86,12.22,0000 0000 0000 0000 000000
2015-05-26 01:02:16,0.01,0.04,0.00,23.17,27.18,30.01,4.80,26.31,1014.18,2036.09,3447.07,3318.01,3602.98,350.14,346.79,12.25,0000 0000 0000 0000 000000
2015-05-26 01:07:17,-0.01,0.04,0.00,23.17,27.18,30.04,4.78,26.28,1014.18,2036.07,3447.04,3318.00,3602.98,349.91,346.56,12.28,0000 0000 0000 0000 000000
2015-05-26 01:12:18,0.01,0.04,0.00,23.18,27.19,30.04,4.78,26.29,1014.16,2036.08,3447.00,3318.00,3602.97,349.68,346.37,12.31,0000 0000 0000 0000 000000
2015-05-26 01:17:19,0.00,0.04,0.00,23.20,27.19,30.03,4.73,26.24,1014.12,2036.14,3447.00,3318.00,3602.96,349.87,346.57,12.34,0000 0000 0000 0000 000000
2015-05-26 01:22:21,0.01,0.04,0.00,23.22,27.19,30.04,4.75,26.30,1013.99,2036.17,3447.00,3318.00,3602.91,349.54,346.34,12.37,0000 0000 0000 0000 000000
2015-05-26 01:27:22,-0.00,0.04,0.00,23.24,27.19,30.02,4.78,26.31,1013.90,2036.19,3446.99,3317.99,3602.76,349.70,346.22,12.40,0000 0000 0000 0000 000000
2015-05-26 01:32:23,0.00,0.04,0.00,23.27,27.19,30.03,4.81,26.31,1013.75,2036.14,3446.99,3317.99,3602.47,350.28,346.71,12.42,0000 0000 0000 0000 000000
2015-05-26 01:37:25,0.01,0.04,0.00,23.27,27.20,30.02,4.66,26.44,1013.74,2036.31,3446.98,3317.98,3602.70,349.26,345.33,12.45,0000 0000 0000 0000 000000
2015-05-26 01:42:26,-0.01,0.04,0.00,23.29,27.20,30.03,4.83,26.28,1013.74,2036.21,3446.96,3317.98,3602.42,350.56,346.65,12.48,0000 0000 0000 0000 000000
2015-05-26 01:47:27,0.05,0.04,0.00,23.31,27.20,30.02,4.72,26.26,1013.71,2036.39,3446.95,3317.98,3602.39,349.56,345.85,12.51,0000 0000 0000 0000 000000
2015-05-26 01:52:28,-0.03,0.04,0.00,23.32,27.20,30.02,4.83,26.31,1013.70,2036.29,3446.85,3317.98,3602.34,350.03,346.32,12.54,0000 0000 0000 0000 000000
2015-05-26 01:57:29,0.02,0.04,0.00,23.34,27.20,30.04,4.72,26.39,1013.71,2036.28,3446.41,3317.88,3602.13,349.39,345.72,12.57,0000 0000 0000 0000 000000
2015-05-26 02:02:30,0.00,0.04,0.00,23.37,27.20,30.02,4.73,26.33,1013.70,2036.21,3446.26,3317.90,3602.02,350.07,346.44,12.60,0000 0000 0000 0000 000000
2015-05-26 02:07:32,-0.02,0.04,0.00,23.38,27.20,30.02,4.79,26.31,1013.71,2036.15,3446.13,3317.89,3602.01,350.10,346.33,12.63,0000 0000 0000 0000 000000
2015-05-26 02:12:33,0.01,0.04,0.00,23.41,27.20,30.02,4.74,26.30,1013.70,2036.14,3446.10,3317.82,3602.01,349.98,346.08,12.66,0000 0000 0000 0000 000000
2015-05-26 02:17:34,-0.00,0.04,0.00,23.43,27.20,30.00,4.68,26.27,1013.70,2036.15,3446.10,3317.82,3602.01,349.38,345.35,12.69,0000 0000 0000 0000 000000
2015-05-26 02:22:35,0.05,0.04,0.00,23.44,27.20,30.01,4.73,26.24,1013.69,2036.40,3446.10,3317.90,3602.03,349.70,345.83,12.72,0000 0000 0000 0000 000000
2015-05-26 02:27:36,-0.02,0.04,0.00,23.46,27.21,30.01,4.67,26.32,1013.69,2036.43,3446.07,3317.84,3602.02,349.24,345.57,12.75,0000 0000 0000 0000 000000
2015-05-26 02:32:38,0.01,0.04,0.00,23.47,27.22,29.99,4.81,26.23,1013.69,2036.22,3446.01,3317.58,3602.00,350.64,346.73,12.78,0000 0000 0000 0000 000000
2015-05-26 02:37:39,-0.02,0.04,0.00,23.50,27.22,29.98,4.72,26.30,1013.66,2036.18,3446.01,3317.48,3601.99,349.98,346.08,12.80,0000 0000 0000 0000 000000
2015-05-26 02:42:40,0.01,0.04,0.00,23.52,27.22,29.99,4.72,26.27,1013.57,2036.15,3446.02,3317.37,3601.99,350.35,346.26,12.83,0000 0000 0000 0000 000000
2015-05-26 02:47:41,0.00,0.04,0.00,23.54,27.22,29.96,4.75,26.32,1013.46,2036.09,3446.00,3317.04,3601.99,350.37,346.52,12.86,0000 0000 0000 0000 000000
2015-05-26 02:52:42,-0.01,0.04,0.00,23.56,27.22,29.95,4.79,26.11,1013.27,2036.03,3446.00,3317.03,3601.96,350.46,346.22,12.89,0000 0000 0000 0000 000000
2015-05-26 02:57:44,0.01,0.04,0.00,23.58,27.22,29.95,4.83,26.49,1013.27,2036.04,3445.97,3317.01,3601.91,349.77,345.53,12.92,0000 0000 0000 0000 000000
2015-05-26 03:02:45,-0.00,0.04,0.00,23.60,27.23,29.97,4.70,26.23,1013.22,2036.02,3445.98,3317.01,3601.77,349.91,345.88,12.95,0000 0000 0000 0000 000000
2015-05-26 03:07:46,0.00,0.04,0.00,23.62,27.25,29.96,4.74,26.21,1013.23,2036.00,3445.91,3317.00,3601.53,350.12,345.94,12.98,0000 0000 0000 0000 000000
2015-05-26 03:12:47,0.02,0.04,0.00,23.63,27.25,29.93,4.74,26.19,1013.23,2036.02,3445.66,3317.00,3601.33,349.93,345.61,13.01,0000 0000 0000 0000 000000
2015-05-26 03:17:49,0.01,0.04,0.00,23.65,27.25,29.96,4.75,26.26,1013.23,2036.01,3445.07,3316.98,3601.06,350.11,345.89,13.04,0000 0000 0000 0000 000000
2015-05-26 03:22:50,0.00,0.04,0.00,23.67,27.25,29.96,4.72,26.22,1013.22,2036.00,3445.02,3316.97,3601.01,350.18,345.91,13.07,0000 0000 0000 0000 000000
2015-05-26 03:27:51,0.00,0.04,0.00,23.68,27.25,29.94,4.72,26.19,1013.21,2036.00,3445.00,3316.96,3601.00,350.19,345.95,13.10,0000 0000 0000 0000 000000
2015-05-26 03:32:52,-0.00,0.04,0.00,23.70,27.26,29.94,4.70,26.18,1013.20,2036.00,3445.00,3316.91,3601.00,349.62,345.38,13.13,0000 0000 0000 0000 000000
2015-05-26 03:37:53,0.00,0.04,0.00,23.72,27.27,29.93,4.81,26.15,1013.20,2036.00,3445.00,3316.81,3601.00,350.27,345.61,13.16,0000 0000 0000 0000 000000
2015-05-26 03:42:54,-0.00,0.04,0.00,23.72,27.27,29.92,4.71,26.17,1013.20,2036.00,3445.00,3316.86,3601.00,349.77,345.49,13.19,0000 0000 0000 0000 000000
2015-05-26 03:47:55,0.00,0.04,0.00,23.74,27.27,29.91,4.71,26.20,1013.20,2036.03,3445.00,3316.89,3601.00,349.86,345.57,13.21,0000 0000 0000 0000 000000
2015-05-26 03:52:57,0.01,0.04,0.00,23.75,27.27,29.94,4.70,26.14,1013.20,2036.01,3444.99,3316.66,3601.00,349.91,345.62,13.24,0000 0000 0000 0000 000000
2015-05-26 03:57:58,0.02,0.04,0.00,23.77,27.28,29.90,4.74,26.39,1013.20,2036.00,3444.96,3316.17,3600.97,350.07,345.67,13.27,0000 0000 0000 0000 000000
2015-05-26 04:02:59,-0.00,0.04,0.00,23.79,27.29,29.90,4.69,26.26,1013.20,2036.00,3444.95,3316.12,3600.97,350.16,345.88,13.30,0000 0000 0000 0000 000000
2015-05-26 04:08:01,0.01,0.04,0.00,23.82,27.30,29.91,4.71,26.22,1013.20,2036.00,3444.87,3316.05,3600.96,349.74,345.11,13.33,0000 0000 0000 0000 000000
2015-05-26 04:13:02,0.00,0.04,0.00,23.83,27.30,29.91,4.71,26.20,1013.20,2036.00,3444.81,3316.05,3600.96,350.07,345.61,13.36,0000 0000 0000 0000 000000
2015-05-26 04:18:04,0.01,0.04,0.00,23.85,27.30,29.92,4.72,26.13,1013.20,2036.00,3444.61,3316.02,3600.91,350.07,345.74,13.39,0000 0000 0000 0000 000000
2015-05-26 04:23:05,0.02,0.04,0.00,23.85,27.31,29.92,4.72,26.18,1013.20,2036.00,3444.31,3316.02,3600.84,349.84,345.50,13.42,0000 0000 0000 0000 000000
2015-05-26 04:28:06,0.01,0.04,0.00,23.86,27.32,29.93,4.68,26.13,1013.20,2036.00,3444.06,3316.00,3600.42,349.46,345.27,13.45,0000 0000 0000 0000 000000
2015-05-26 04:33:07,0.00,0.04,0.00,23.87,27.32,29.92,4.77,26.19,1013.20,2036.00,3444.04,3316.00,3600.44,350.18,345.61,13.48,0000 0000 0000 0000 000000
2015-05-26 04:38:09,0.00,0.04,0.00,23.90,27.32,29.91,4.69,26.13,1013.17,2036.00,3444.04,3316.00,3600.27,349.88,345.18,13.51,0000 0000 0000 0000 000000
2015-05-26 04:43:10,-0.01,0.04,0.00,23.92,27.32,29.92,4.67,26.23,1013.14,2036.00,3444.02,3316.00,3600.44,349.57,344.87,13.54,0000 0000 0000 0000 000000
2015-05-26 04:48:11,0.01,0.04,0.00,23.93,27.34,29.92,4.79,26.33,1013.17,2036.00,3444.02,3316.00,3600.26,349.98,345.42,13.57,0000 0000 0000 0000 000000
2015-05-26 04:53:13,0.00,0.04,0.00,23.96,27.35,29.92,4.77,26.23,1013.18,2036.00,3444.00,3316.00,3600.06,350.33,345.57,13.60,0000 0000 0000 0000 000000
2015-05-26 04:58:14,0.00,0.04,0.00,23.97,27.35,29.94,4.77,26.31,1013.14,2036.00,3444.00,3315.98,3600.03,350.11,345.51,13.62,0000 0000 0000 0000 000000
2015-05-26 05:03:15,0.00,0.04,0.00,23.98,27.35,29.93,4.73,26.24,1013.13,2035.99,3444.00,3315.98,3600.00,349.84,345.17,13.65,0000 0000 0000 0000 000000
2015-05-26 05:08:17,0.00,0.04,0.00,24.00,27.36,29.94,4.76,26.26,1013.09,2035.99,3443.99,3315.97,3600.00,349.76,345.20,13.68,0000 0000 0000 0000 000000
2015-05-26 05:13:18,0.00,0.04,0.00,24.01,27.37,29.94,4.68,26.07,1012.85,2035.99,3443.97,3315.86,3599.99,349.93,345.12,13.71,0000 0000 0000 0000 000000
2015-05-26 05:18:19,0.00,0.04,0.00,24.03,27.37,29.94,4.75,26.23,1012.74,2035.98,3443.98,3315.78,3599.98,350.51,345.64,13.74,0000 0000 0000 0000 000000
2015-05-26 05:23:20,0.01,0.04,0.00,24.06,27.37,29.93,4.73,26.13,1012.73,2035.99,3443.97,3315.67,3599.99,349.85,344.84,13.77,0000 0000 0000 0000 000000
2015-05-26 05:28:21,-0.00,0.04,0.00,24.08,27.39,29.94,4.82,26.22,1012.73,2035.99,3443.97,3315.72,3599.98,350.32,345.33,13.80,0000 0000 0000 0000 000000
2015-05-26 05:33:22,0.02,0.04,0.00,24.10,27.40,29.93,4.70,26.13,1012.71,2035.99,3443.83,3315.25,3599.96,350.09,345.16,13.83,0000 0000 0000 0000 000000
2015-05-26 05:38:24,0.02,0.04,0.00,24.10,27.40,29.95,4.68,26.07,1012.71,2035.98,3443.32,3315.07,3599.92,349.35,344.54,13.86,0000 0000 0000 0000 000000
2015-05-26 05:43:25,0.00,0.05,0.00,24.11,27.41,29.97,4.78,26.17,1012.71,2035.97,3443.08,3315.03,3599.73,350.65,345.48,13.89,0000 0000 0000 0000 000000
2015-05-26 05:48:26,0.02,0.05,0.00,24.12,27.42,29.97,4.73,26.16,1012.71,2035.97,3443.03,3315.03,3599.60,349.54,344.63,13.92,0000 0000 0000 0000 000000
2015-05-26 05:53:28,0.00,0.05,0.00,24.12,27.42,29.97,4.74,26.19,1012.71,2035.97,3443.01,3315.01,3599.33,349.94,345.05,13.95,0000 0000 0000 0000 000000
2015-05-26 05:58:29,-0.00,0.05,0.00,24.15,27.42,29.99,4.66,26.27,1012.71,2035.94,3443.00,3315.00,3599.07,349.79,344.90,13.98,0000 0000 0000 0000 000000
2015-05-26 06:03:31,-0.00,0.05,0.00,24.17,27.44,29.99,4.69,26.05,1012.71,2035.96,3443.00,3315.00,3599.06,349.68,344.84,14.01,0000 0000 0000 0000 000000
2015-05-26 06:08:32,0.01,0.05,0.00,24.17,27.45,30.00,4.73,26.15,1012.71,2035.97,3442.98,3314.99,3599.04,349.80,344.88,14.03,0000 0000 0000 0000 000000
2015-05-26 06:13:33,0.00,0.05,0.00,24.19,27.45,30.02,4.66,26.21,1012.68,2035.91,3442.93,3314.97,3599.00,349.16,344.08,14.06,0000 0000 0000 0000 000000
2015-05-26 06:18:34,-0.01,0.05,0.00,24.19,27.47,30.02,4.67,26.18,1012.69,2035.83,3442.68,3314.88,3599.00,349.86,344.78,14.09,0000 0000 0000 0000 000000
2015-05-26 06:23:36,0.01,0.05,0.00,24.20,27.47,30.03,4.66,26.18,1012.70,2035.82,3442.34,3314.73,3599.00,349.74,344.72,14.12,0000 0000 0000 0000 000000
2015-05-26 06:28:37,-0.04,0.05,0.00,24.21,27.47,30.03,4.70,26.18,1012.70,2035.61,3442.36,3314.57,3598.99,349.93,344.80,14.15,0000 0000 0000 0000 000000
2015-05-26 06:33:38,0.02,0.05,0.00,24.22,27.48,30.04,4.77,26.20,1012.70,2035.72,3442.57,3314.63,3598.98,350.03,345.11,14.18,0000 0000 0000 0000 000000
2015-05-26 06:38:39,-0.01,0.04,0.00,24.24,27.50,30.05,4.67,26.17,1012.69,2035.43,3442.28,3314.27,3598.94,349.70,344.46,14.21,0000 0000 0000 0000 000000
2015-05-26 06:43:40,0.01,0.04,0.00,24.25,27.50,30.05,4.67,26.13,1012.56,2035.36,3442.03,3314.08,3598.83,349.93,344.89,14.24,0000 0000 0000 0000 000000
2015-05-26 06:48:41,-0.01,0.05,0.00,24.25,27.50,30.06,4.72,26.14,1012.56,2035.26,3442.01,3314.02,3598.49,349.81,344.80,14.27,0000 0000 0000 0000 000000
2015-05-26 06:53:42,0.01,0.04,0.00,24.27,27.52,30.06,4.64,26.18,1012.62,2035.19,3442.00,3314.02,3598.31,349.36,344.24,14.30,0000 0000 0000 0000 000000
2015-05-26 06:58:44,-0.02,0.04,0.00,24.27,27.52,30.06,4.68,26.23,1012.50,2035.07,3441.99,3314.00,3598.04,349.60,344.20,14.33,0000 0000 0000 0000 000000
2015-05-26 07:03:45,-0.00,0.04,0.00,24.28,27.52,30.07,4.78,26.16,1012.28,2035.05,3441.98,3313.99,3598.02,350.39,345.03,14.36,0000 0000 0000 0000 000000
2015-05-26 07:08:46,-0.00,0.04,0.00,24.30,27.53,30.07,4.73,26.05,1012.25,2035.04,3441.95,3313.99,3598.01,349.90,344.64,14.39,0000 0000 0000 0000 000000
2015-05-26 07:13:47,0.06,0.05,0.00,24.32,27.55,30.08,4.76,26.17,1012.26,2035.04,3441.14,3313.31,3597.92,350.42,345.07,14.42,0000 0000 0000 0000 000000
2015-05-26 07:18:48,0.01,0.05,0.00,24.32,27.55,30.07,4.75,26.13,1012.27,2035.03,3440.99,3313.04,3597.72,350.40,345.09,14.44,0000 0000 0000 0000 000000
2015-05-26 07:23:49,0.01,0.05,0.00,24.32,27.55,30.07,4.80,26.12,1012.30,2035.03,3440.96,3313.01,3597.19,350.54,345.06,14.47,0000 0000 0000 0000 000000
2015-05-26 07:28:50,0.00,0.05,0.00,24.34,27.57,30.08,4.71,26.14,1012.36,2035.02,3440.89,3313.00,3597.02,350.24,344.57,14.50,0000 0000 0000 0000 000000
2015-05-26 07:33:51,0.00,0.05,0.00,24.34,27.57,30.09,4.71,26.09,1012.28,2035.02,3440.82,3313.00,3597.03,349.59,344.33,14.53,0000 0000 0000 0000 000000
2015-05-26 07:38:52,0.01,0.05,0.00,24.35,27.57,30.09,4.70,26.11,1012.24,2035.01,3440.49,3313.00,3597.00,349.59,344.22,14.56,0000 0000 0000 0000 000000
2015-05-26 07:43:54,0.01,0.05,0.00,24.35,27.58,30.09,4.73,26.10,1012.23,2035.02,3440.31,3313.00,3597.01,350.06,344.73,14.59,0000 0000 0000 0000 000000
2015-05-26 07:48:55,0.00,0.05,0.00,24.35,27.60,30.10,4.77,26.10,1012.24,2035.01,3440.10,3312.99,3597.00,350.02,344.75,14.62,0000 0000 0000 0000 000000
2015-05-26 07:53:56,0.00,0.05,0.00,24.35,27.60,30.10,4.83,26.17,1012.23,2035.00,3440.01,3312.97,3597.00,350.61,344.77,14.65,0000 0000 0000 0000 000000
2015-05-26 07:58:57,0.02,0.05,0.00,24.35,27.60,30.12,4.68,26.27,1012.23,2034.99,3439.99,3312.48,3596.95,349.56,344.25,14.68,0000 0000 0000 0000 000000
2015-05-26 08:03:59,-0.00,0.05,0.00,24.36,27.61,30.13,4.69,26.16,1012.24,2034.99,3439.99,3312.46,3596.92,349.81,344.57,14.71,0000 0000 0000 0000 000000
2015-05-26 08:09:00,0.01,0.05,0.00,24.37,27.62,30.13,4.73,26.07,1012.27,2034.99,3439.98,3312.26,3596.86,350.21,344.72,14.74,0000 0000 0000 0000 000000
2015-05-26 08:14:01,0.02,0.05,0.00,24.36,27.62,30.14,4.69,26.09,1012.31,2034.99,3439.91,3312.06,3596.47,349.67,344.45,14.77,0000 0000 0000 0000 000000
2015-05-26 08:19:02,0.01,0.05,0.00,24.36,27.62,30.16,4.77,26.12,1012.26,2034.99,3439.67,3312.01,3596.15,350.13,344.78,14.80,0000 0000 0000 0000 000000
2015-05-26 08:24:03,0.01,0.05,0.00,24.35,27.64,30.16,4.74,26.08,1012.26,2034.99,3439.18,3312.00,3596.02,350.33,345.02,14.82,0000 0000 0000 0000 000000
2015-05-26 08:29:05,0.00,0.05,0.00,24.35,27.65,30.17,4.71,26.04,1012.28,2034.99,3439.02,3312.00,3596.00,349.99,344.67,14.85,0000 0000 0000 0000 000000
2015-05-26 08:34:06,0.00,0.05,0.00,24.35,27.65,30.18,4.77,26.08,1012.25,2034.99,3439.00,3311.99,3596.00,350.16,344.87,14.88,0000 0000 0000 0000 000000
2015-05-26 08:39:07,0.00,0.05,0.00,24.36,27.65,30.20,4.72,26.07,1012.27,2034.99,3439.00,3311.98,3595.99,350.02,344.57,14.91,0000 0000 0000 0000 000000
2015-05-26 08:44:08,0.00,0.05,0.00,24.37,27.65,30.21,4.75,26.14,1012.27,2034.99,3438.98,3311.98,3595.98,350.19,344.79,14.94,0000 0000 0000 0000 000000
2015-05-26 08:49:09,0.00,0.05,0.00,24.35,27.67,30.21,4.77,26.17,1012.27,2034.99,3438.95,3311.93,3595.95,350.21,344.68,14.97,0000 0000 0000 0000 000000
2015-05-26 08:54:10,0.00,0.05,0.00,24.35,27.67,30.22,4.67,26.13,1012.27,2034.99,3438.93,3311.91,3595.94,349.61,344.29,15.00,0000 0000 0000 0000 000000
2015-05-26 08:59:11,0.05,0.05,0.00,24.34,27.67,30.24,4.80,26.38,1012.25,2034.99,3438.43,3311.51,3595.64,349.98,344.66,15.03,0000 0000 0000 0000 000000
2015-05-26 09:04:13,-0.00,0.05,0.00,24.33,27.67,30.25,4.74,26.14,1012.23,2034.99,3438.31,3311.44,3595.51,350.26,344.87,15.06,0000 0000 0000 0000 000000
2015-05-26 09:09:14,0.02,0.05,0.00,24.32,27.68,30.26,4.72,26.05,1012.23,2034.99,3438.04,3311.13,3595.14,350.15,344.92,15.09,0000 0000 0000 0000 000000
2015-05-26 09:14:16,-0.00,0.05,0.00,24.32,27.69,30.27,4.69,26.09,1012.22,2034.99,3438.01,3311.07,3595.09,349.76,344.50,15.12,0000 0000 0000 0000 000000
2015-05-26 09:19:17,0.00,0.05,0.00,24.32,27.70,30.28,4.76,26.08,1012.22,2034.99,3438.00,3311.05,3595.03,350.12,344.82,15.15,0000 0000 0000 0000 000000
2015-05-26 09:24:18,0.00,0.05,0.00,24.32,27.70,30.30,4.68,26.18,1012.22,2034.98,3438.00,3311.01,3595.01,349.84,344.43,15.18,0000 0000 0000 0000 000000
2015-05-26 09:29:19,0.00,0.05,0.00,24.32,27.70,30.28,4.71,26.16,1012.22,2034.98,3437.98,3311.00,3595.00,350.04,344.56,15.21,0000 0000 0000 0000 000000
2015-05-26 09:34:20,-0.00,0.05,0.00,24.30,27.70,30.29,4.71,26.15,1012.22,2034.96,3437.97,3311.00,3595.00,350.17,344.87,15.23,0000 0000 0000 0000 000000
2015-05-26 09:39:21,-0.00,0.05,0.00,24.30,27.70,30.31,4.73,26.17,1012.22,2034.95,3437.82,3310.99,3594.98,350.06,344.69,15.26,0000 0000 0000 0000 000000
2015-05-26 09:44:23,0.01,0.05,0.00,24.29,27.70,30.29,4.72,26.17,1012.22,2034.97,3437.64,3310.99,3594.99,349.51,344.10,15.29,0000 0000 0000 0000 000000
2015-05-26 09:49:24,0.01,0.05,0.00,24.27,27.70,30.30,4.70,26.08,1012.22,2034.98,3437.37,3310.98,3594.98,349.58,344.19,15.32,0000 0000 0000 0000 000000
2015-05-26 09:54:25,-0.00,0.05,0.00,24.27,27.70,30.30,4.79,26.14,1012.20,2034.93,3437.10,3310.94,3594.95,350.39,344.88,15.35,0000 0000 0000 0000 000000
2015-05-26 09:59:27,0.01,0.05,0.00,24.27,27.70,30.32,4.72,26.21,1012.20,2034.94,3437.00,3310.80,3594.75,350.14,344.94,15.38,0000 0000 0000 0000 000000
2015-05-26 10:04:28,-0.01,0.05,0.00,24.27,27.70,30.32,4.74,26.09,1012.10,2034.98,3437.01,3310.96,3594.91,350.32,345.03,15.41,0000 0000 0000 0000 000000
2015-05-26 10:09:29,0.00,0.05,0.00,24.26,27.70,30.31,4.72,26.19,1012.06,2034.95,3437.00,3310.88,3594.75,349.63,344.37,15.44,0000 0000 0000 0000 000000
2015-05-26 10:14:30,0.02,0.05,0.00,24.25,27.70,30.30,4.70,26.04,1012.08,2034.95,3437.00,3310.64,3594.36,349.96,344.62,15.47,0000 0000 0000 0000 000000
2015-05-26 10:19:32,0.02,0.06,0.00,24.24,27.70,30.32,4.75,26.16,1012.12,2034.97,3436.99,3310.34,3594.13,349.68,344.38,15.50,0000 0000 0000 0000 000000
2015-05-26 10:24:33,0.01,0.06,0.00,24.24,27.70,30.34,4.69,26.18,1012.08,2034.97,3436.98,3310.23,3594.07,349.50,344.32,15.53,0000 0000 0000 0000 000000
2015-05-26 10:29:34,-0.00,0.06,0.00,24.24,27.70,30.34,4.76,26.23,1012.07,2034.97,3436.95,3310.12,3594.04,350.02,344.71,15.56,0000 0000 0000 0000 000000
2015-05-26 10:34:35,0.01,0.06,0.00,24.22,27.70,30.35,4.73,26.22,1012.03,2034.97,3436.81,3310.06,3594.02,350.16,344.66,15.59,0000 0000 0000 0000 000000
2015-05-26 10:39:37,0.00,0.06,0.00,24.22,27.70,30.37,4.72,26.16,1011.82,2034.97,3436.55,3310.06,3594.01,349.43,344.15,15.62,0000 0000 0000 0000 000000
2015-05-26 10:44:38,0.01,0.06,0.00,24.20,27.70,30.36,4.66,26.19,1011.78,2034.98,3436.34,3310.03,3594.01,349.32,344.14,15.64,0000 0000 0000 0000 000000
2015-05-26 10:49:39,0.00,0.06,0.00,24.19,27.70,30.39,4.81,26.12,1011.78,2034.96,3436.02,3310.00,3594.00,350.68,345.36,15.67,0000 0000 0000 0000 000000
2015-05-26 10:54:40,0.01,0.06,0.00,24.18,27.70,30.37,4.75,26.22,1011.78,2034.97,3436.00,3310.00,3593.98,350.00,344.80,15.70,0000 0000 0000 0000 000000
2015-05-26 10:59:41,0.00,0.06,0.00,24.18,27.70,30.38,4.68,26.17,1011.75,2034.96,3435.98,3310.00,3593.95,350.05,344.79,15.73,0000 0000 0000 0000 000000
2015-05-26 11:04:42,0.00,0.06,0.00,24.17,27.70,30.38,4.66,26.03,1011.78,2034.98,3435.95,3309.98,3593.93,349.65,344.47,15.76,0000 0000 0000 0000 000000
2015-05-26 11:09:44,0.01,0.06,0.00,24.16,27.70,30.40,4.74,26.08,1011.76,2034.98,3435.80,3309.98,3593.76,349.87,344.60,15.79,0000 0000 0000 0000 000000
2015-05-26 11:14:45,0.01,0.06,0.00,24.15,27.70,30.37,4.71,26.09,1011.77,2034.99,3435.48,3309.96,3593.63,349.92,344.80,15.82,0000 0000 0000 0000 000000
2015-05-26 11:19:46,0.01,0.06,0.00,24.15,27.70,30.40,4.68,26.10,1011.76,2034.98,3435.15,3309.93,3593.38,349.76,344.21,15.85,0000 0000 0000 0000 000000
2015-05-26 11:24:47,0.01,0.06,0.00,24.12,27.70,30.37,4.74,26.09,1011.75,2034.98,3435.02,3309.78,3593.07,350.34,345.05,15.88,0000 0000 0000 0000 000000
2015-05-26 11:29:48,0.01,0.06,0.00,24.11,27.69,30.39,4.75,26.16,1011.74,2034.99,3435.01,3309.74,3593.10,349.87,344.66,15.91,0000 0000 0000 0000 000000
2015-05-26 11:34:50,0.02,0.06,0.00,24.10,27.68,30.39,4.72,26.14,1011.74,2034.99,3435.00,3309.24,3593.01,350.06,344.81,15.94,0000 0000 0000 0000 000000
2015-05-26 11:39:52,-0.00,0.06,0.00,24.08,27.67,30.40,4.69,26.16,1011.73,2034.99,3435.00,3309.18,3593.00,349.68,344.45,15.97,0000 0000 0000 0000 000000
2015-05-26 11:44:53,0.00,0.06,0.00,24.07,27.67,30.38,4.75,26.18,1011.73,2034.99,3434.96,3309.05,3593.00,350.13,344.93,16.00,0000 0000 0000 0000 000000
2015-05-26 11:49:54,-0.00,0.06,0.00,24.07,27.67,30.39,4.71,26.15,1011.73,2034.99,3434.88,3309.03,3592.99,350.05,344.76,16.02,0000 0000 0000 0000 000000
2015-05-26 11:54:55,0.01,0.06,0.00,24.07,27.67,30.39,4.69,26.13,1011.73,2034.99,3434.65,3309.02,3592.99,349.63,344.37,16.05,0000 0000 0000 0000 000000
2015-05-26 11:59:57,0.01,0.06,0.00,24.05,27.67,30.37,4.78,26.26,1011.72,2034.99,3434.10,3309.01,3592.96,350.48,345.26,16.08,0000 0000 0000 0000 000000
2015-05-26 12:04:58,-0.00,0.06,0.00,24.05,27.67,30.37,4.69,26.08,1011.71,2034.99,3434.06,3309.01,3592.96,350.00,344.87,16.11,0000 0000 0000 0000 000000
2015-05-26 12:10:00,0.01,0.06,0.00,24.04,27.66,30.38,4.76,26.10,1011.67,2034.99,3434.00,3309.00,3592.60,350.48,345.20,16.14,0000 0000 0000 0000 000000
2015-05-26 12:15:01,0.00,0.06,0.00,24.02,27.65,30.39,4.73,26.16,1011.64,2034.99,3433.99,3309.00,3592.27,350.06,344.82,16.17,0000 0000 0000 0000 000000
2015-05-26 12:20:03,0.00,0.06,0.00,24.02,27.65,30.39,4.76,26.10,1011.66,2034.99,3433.98,3308.98,3592.09,349.92,344.60,16.20,0000 0000 0000 0000 000000
2015-05-26 12:25:04,0.00,0.06,0.00,24.01,27.65,30.39,4.81,26.18,1011.66,2034.99,3433.87,3308.97,3592.03,350.29,345.12,16.23,0000 0000 0000 0000 000000
2015-05-26 12:30:05,0.00,0.06,0.00,24.00,27.65,30.38,4.71,26.09,1011.62,2034.99,3433.74,3308.93,3592.02,350.44,345.34,16.26,0000 0000 0000 0000 000000
2015-05-26 12:35:06,0.01,0.06,0.00,24.00,27.65,30.38,4.72,26.14,1011.61,2034.99,3433.42,3308.92,3592.01,349.44,344.48,16.29,0000 0000 0000 0000 000000
2015-05-26 12:40:07,0.01,0.06,0.00,24.00,27.65,30.37,4.69,26.18,1011.45,2034.99,3433.06,3308.87,3592.01,349.79,344.55,16.32,0000 0000 0000 0000 000000
2015-05-26 12:45:08,0.01,0.06,0.00,23.97,27.63,30.37,4.70,26.15,1011.46,2035.00,3433.02,3308.79,3592.00,350.22,344.91,16.35,0000 0000 0000 0000 000000
2015-05-26 12:50:09,0.02,0.06,0.00,23.97,27.62,30.36,4.71,26.15,1011.30,2035.00,3433.00,3308.37,3592.00,349.57,344.39,16.38,0000 0000 0000 0000 000000
2015-05-26 12:55:10,-0.00,0.06,0.00,23.95,27.62,30.38,4.70,26.22,1011.27,2035.01,3433.00,3308.33,3591.99,349.59,344.38,16.41,0000 0000 0000 0000 000000
2015-05-26 13:00:11,0.01,0.06,0.00,23.93,27.62,30.38,4.76,26.25,1011.25,2035.00,3432.97,3308.12,3591.98,349.81,344.50,16.44,0000 0000 0000 0000 000000